Location: Unspecified
(0.0000°N, 0.0000°E)
Time: 01:31:46
(UTC+00:00)

Envisat - Pass Details

Date: 20 February 2019
Orbit: 764 x 766 km, 98.2° (Epoch: 15 February)

Event Time Altitude Azimuth Distance (km) Brightness Sun altitude
Rises 18:38:30 0° 154° (SSE) 3,229 6.1 -6.1°
Reaches altitude 10° 18:40:56 10° 147° (SSE) 2,301 5.3 -6.7°
Maximum altitude 18:45:39 40° 78° (ENE) 1,117 3.4 -7.8°
Drops below altitude 10° 18:50:21 10° 9° (N) 2,291 5.3 -9.0°
Sets 18:52:46 0° 2° (N) 3,213 6.1 -9.6°
